Location: Clermont
(50.2608°N, 4.3172°E)
Time: 05:11:41
(UTC+00:00)

Meteor 1-13 Rocket - Pass Details

Date: 13 August 2020
Orbit: 830 x 913 km, 81.3° (Epoch: 19 September)

Event Time Altitude Azimuth Distance (km) Brightness Sun altitude
Rises 22:04:46 0° 345° (NNW) 3,393 8.8 -21.6°
Reaches altitude 10° 22:07:13 10° 341° (NNW) 2,451 7.7 -21.8°
Maximum altitude 22:12:38 60° 264° (W) 954 4.5 -22.2°
Enters shadow 22:14:37 38° 203° (SSW) 1,258 4.7 -22.3°
